COSMOS 1275 DEB, 12701

Orbit data source: Space-Track

COSMOS 1275 DEB, 12701 is space debris in LEO originally from a launch on Thu, 04 Jun 1981 UTC launched from the Plesetsk Missile And Space Complex (PKMTR). Debris objects in space refer to the collection of defunct objects orbiting the Earth. Examples of debris include non-operational satellites, rocket bodies, and fragments generated from explosions, collisions, or faulty payload assembly.

Loading next visibility...
Identifier
12701, 1981-053AV
Orbit
LEO
Country
Flag of CISCIS
Related business
Manufacturer
Unknown
Mission
Spacecraft
Bus & Motor
Unknown
Mass
Unknown
Launch date (UTC)
1981-06-04 (45 years ago)
Launch vehicle
Unknown
Launch site
Plesetsk Missile And Space Complex (PKMTR)
Object type
Payload
Rocket body
Debris
Shape & HBR
Unknown shape, 0.2 m
Radar Cross Section
Medium (>0.1 m² and <1 m²)

Expand to show TLE details & history
Last TLE update: 17 hours ago

TLE from 17 hours ago
0 COSMOS 1275 DEB
1 12701U 81053AV  26149.83880355  .00000981  00000-0  74031-3 0  9996
2 12701  82.8474 288.3825 0039749  65.0910  86.5009 13.92851709261771
Epoch: 2026-05-29T20:07Z
TLE epoch observation values (Epoch: 2026-05-29T20:07:52.626Z)
Latitude
27.75779°
Longitude
-84.7172°
Altitude
920.416 km
Speed
7.395 km/s
True Right ascension
06h 58m 27s
True Declination
27° 37' 10"
Sunlit
Object was in daylight at epoch
Visualization orbit readout
Latitude
Unknown
Longitude
Unknown
Altitude
Unknown
Speed
Unknown
Apparent Right ascension
Unknown
Apparent Declination
Unknown
Sunlit
N/A
Visualization observer readout
Local Sidereal Time
22:09:38
Azimuth
Unknown
Elevation
Unknown
Doppler factor
Unknown
Orbital elements
Apogee altitude
944.775 km
Perigee altitude
886.789 km
Semi-major axis
7,293.919 km
Eccentricity
0.00397
Inclination
82.8474°
RAAN
288.3825°
Arg. of periapsis
65.091°
True anomaly
86.95567°
Mean anomaly
86.5009°
Eccentric anomaly
86.72827°
Mean motion
3.48419 °/min
Orbital period
103.32 mins
BSTAR
0.00074031
Loading maneuver chart data...
Computing Atmospheric mass density...
Loading historical data...
Loading historical data...
Loading historical data...
Loading historical data...
Loading historical data...
Loading historical data...
Loading historical data...

Documentation

Showing up to 5 results
|